Wind_Speed
19 16 15 16 15 15 10 10 12 14 13 14 15 15 16 16 16 17 17 17 17 17 18 18 17 18 17 17 17 17 17 17 16 15 15 14 13 13 12 12 13 12 10
17 15 14 14 14 15 13 11 13 14 15 16 18 18 19 20 20 20 19 20 19 18 17 16 17 18 17 17 16 17 17 17 16 15 14 13 13 12 12 12 12 11 12
15 14 14 14 14 13 13 13 15 14 16 17 18 18 19 19 19 19 19 19 19 18 16 16 16 17 17 17 17 17 15 15 15 15 13 12 13 13 14 13 12 12 12
16 14 14 14 13 13 14 14 15 16 16 16 16 16 18 18 19 19 18 18 18 17 16 18 18 16 16 15 14 15 14 15 15 14 15 15 15 16 15 15 14 13 13
15 14 13 13 12 12 13 15 15 15 15 14 14 15 16 17 18 18 18 17 16 15 15 17 18 16 15 14 13 14 14 15 16 18 17 18 17 17 16 16 15 14 13
14 12 11 10 12 12 13 13 14 15 14 14 13 14 16 16 16 17 17 17 18 15 15 16 16 15 13 12 13 14 16 18 19 18 17 17 17 17 16 15 15 14 14
12 11 10 9 11 11 12 12 13 14 13 12 13 13 14 14 15 15 16 17 16 17 16 14 14 14 13 14 15 17 18 17 20 18 16 17 17 17 16 16 15 14 13
11 9 10 11 11 12 11 13 13 14 13 12 12 12 13 14 14 15 15 15 15 14 13 14 14 14 14 16 16 17 17 17 18 17 17 17 16 16 16 15 14 13 13
10 9 11 12 13 13 12 13 14 14 13 11 12 11 12 14 14 14 14 14 15 14 13 12 13 15 16 16 16 17 17 16 17 16 17 16 16 16 15 14 14 14 15
10 11 12 11 12 14 13 14 12 13 14 10 11 11 12 13 14 14 14 14 14 15 15 14 15 16 16 16 16 16 16 15 15 15 15 15 15 14 15 17 17 17 16
12 12 12 11 12 13 12 12 11 12 13 12 11 12 13 14 14 13 13 12 13 14 14 15 16 16 16 15 15 14 14 14 14 14 14 14 15 17 18 17 17 17 16
11 11 12 12 14 15 13 11 11 12 10 12 13 13 14 14 13 13 13 13 13 14 15 15 16 15 13 14 13 12 14 12 14 15 14 15 18 18 17 17 17 16 16
10 10 11 11 11 13 11 16 11 13 12 13 13 13 13 13 14 13 13 13 12 13 15 15 15 14 12 12 11 12 13 14 15 15 16 17 17 17 16 15 15 14 15
11 10 12 13 9 10 14 18 17 14 13 13 14 12 12 13 12 11 11 12 13 14 15 16 14 13 11 11 11 13 14 15 15 16 16 17 17 15 14 13 13 13 14
12 11 11 12 13 13 17 23 21 13 13 13 13 12 12 12 11 11 11 11 12 14 15 15 14 12 11 11 11 13 15 15 16 16 17 15 14 13 13 14 15 14 15
10 12 11 12 13 16 20 20 18 15 14 14 12 12 11 10 10 10 11 12 12 13 15 15 13 13 11 10 12 13 15 15 15 16 15 12 11 13 14 14 14 15 15
10 12 10 10 13 16 18 19 18 16 14 13 12 12 10 9 9 7 10 12 11 14 15 14 13 12 10 10 12 13 13 14 14 12 10 9 10 11 11 11 14 15 16
12 12 10 9 12 13 18 17 18 19 16 14 12 12 11 8 7 7 9 10 10 13 15 14 12 11 10 10 12 12 12 13 11 9 7 7 7 8 8 11 12 14 16
11 10 8 7 8 12 19 19 21 21 17 14 12 12 12 9 8 10 9 10 10 11 14 14 12 11 10 12 11 12 12 11 9 6 4 4 4 5 8 11 12 14 17
10 12 10 8 8 15 23 25 23 19 18 15 12 11 12 11 10 10 10 9 12 12 14 14 12 11 11 13 11 11 11 9 7 4 2 2 3 7 10 13 14 13 17
9 11 14 12 12 16 19 21 19 17 16 14 12 13 14 11 11 10 10 11 12 13 15 14 13 11 11 12 12 11 9 6 4 2 1 3 5 8 11 14 14 15 19
9 12 16 15 16 15 17 17 17 16 14 13 12 12 13 12 10 12 11 13 13 14 13 13 13 12 11 12 10 10 5 6 5 3 3 4 7 10 11 14 17 20 19
9 13 16 16 16 18 17 15 15 14 13 12 12 10 11 12 11 13 15 16 15 14 14 13 14 12 9 12 12 11 5 3 6 6 5 7 8 10 13 17 21 17 17
10 12 16 18 17 18 17 15 13 12 11 12 11 10 11 11 12 15 15 15 14 17 17 15 15 14 12 10 13 13 11 10 4 4 10 8 9 11 15 20 15 16 19
13 11 14 18 19 18 16 15 14 15 14 13 11 10 11 10 10 14 14 13 15 18 18 17 15 15 14 12 12 13 12 10 9 7 4 9 14 13 16 11 14 17 20
15 14 15 18 19 18 18 17 15 15 15 13 11 10 10 9 9 10 12 11 12 16 20 20 19 17 17 15 14 13 12 12 10 10 10 11 13 15 12 14 16 18 21
Wind_Direction
128 121 113 109 99 96 91 101 113 114 110 108 111 114 112 110 111 109 107 106 108 108 107 108 108 107 103 100 100 99 97 95 94 93 91 92 93 95 99 99 99 97 101
120 114 109 105 104 108 107 102 114 116 108 110 112 113 112 110 107 106 107 106 107 105 103 105 108 105 103 98 94 95 96 95 94 93 92 93 94 97 97 97 96 104 100
117 115 112 107 103 104 111 115 115 115 111 111 111 111 108 109 108 107 108 109 108 103 101 101 103 104 101 99 99 95 97 98 98 95 93 91 95 97 98 100 100 93 89
124 121 115 109 104 103 107 115 116 117 115 116 113 112 111 110 109 109 111 112 112 110 106 99 103 107 107 104 101 100 100 100 97 99 94 100 99 97 95 92 91 89 88
128 124 120 117 114 109 109 114 118 121 120 118 115 114 117 116 117 115 112 113 109 106 103 106 109 109 97 101 100 102 104 104 103 99 99 99 96 93 92 89 87 86 86
131 129 126 127 121 116 113 116 121 120 117 118 118 118 115 113 117 119 111 109 105 102 109 104 103 98 94 100 103 104 105 107 106 100 101 96 95 92 91 89 86 84 81
132 129 132 137 131 124 120 119 119 121 121 117 115 110 106 109 113 116 117 108 108 101 103 105 98 94 95 100 104 106 107 108 104 102 101 95 96 96 93 90 88 85 81
141 143 142 143 141 138 131 126 128 129 123 120 116 113 116 118 118 120 123 122 118 117 125 98 99 97 101 104 105 107 107 106 105 104 100 99 100 95 92 90 88 83 76
154 153 149 145 143 148 140 135 132 128 128 122 116 115 117 119 118 121 118 120 125 124 121 106 102 106 109 110 110 108 107 105 104 105 103 101 98 97 98 92 85 82 78
163 151 147 148 152 154 149 144 140 130 122 127 131 125 125 123 124 127 128 126 124 126 124 118 113 114 114 111 110 108 108 108 107 105 102 103 106 103 93 91 91 86 79
159 157 150 160 154 153 154 147 149 140 147 136 140 134 132 128 130 128 126 123 121 121 118 116 118 118 114 109 109 111 114 109 111 106 107 110 105 99 100 98 91 84 76
163 162 161 161 157 158 161 173 164 165 148 142 141 138 138 133 127 129 125 121 123 127 124 124 123 118 115 112 110 115 109 115 112 113 114 109 106 105 102 95 87 79 71
171 168 162 165 162 166 184 183 169 170 166 147 145 142 140 136 133 128 127 124 128 132 130 130 123 118 115 113 112 114 117 118 118 121 114 113 110 103 95 88 80 73 64
173 170 167 173 168 170 162 163 180 158 157 149 144 146 143 136 128 125 123 127 133 137 139 132 126 120 115 110 120 125 123 122 125 120 117 114 108 101 92 80 68 57 49
165 172 173 170 166 164 150 168 168 154 153 148 146 149 145 139 133 127 123 126 127 139 141 137 132 127 120 122 126 129 128 129 128 124 119 113 107 96 79 62 49 41 30
157 168 172 166 161 161 164 161 166 161 154 149 149 149 149 147 144 138 131 131 133 140 147 143 140 129 127 131 129 131 130 131 132 129 122 114 99 81 65 53 41 30 17
161 163 160 168 172 167 173 171 173 169 161 154 151 153 152 156 160 154 147 141 135 143 151 149 143 135 133 137 134 131 133 135 135 129 119 106 89 78 66 47 33 23 9
157 154 144 158 170 171 177 174 174 171 168 165 159 158 154 151 157 167 168 166 147 149 156 157 146 141 142 141 137 135 137 140 142 135 121 96 81 77 56 33 20 6 355
155 165 151 150 165 181 173 168 162 160 166 169 168 164 166 156 146 139 143 154 158 154 160 155 154 146 141 143 139 142 148 155 151 143 121 90 84 52 29 15 5 358 355
153 162 162 154 144 152 157 154 156 163 168 172 172 171 171 162 156 146 141 146 148 153 157 158 153 145 146 152 153 161 166 169 168 166 130 78 15 4 1 355 353 349 351
157 164 167 153 150 153 159 160 163 166 172 177 183 182 173 172 174 170 154 144 150 152 157 157 156 149 153 162 161 170 177 184 190 228 9 6 350 349 347 346 345 342 344
175 171 174 165 159 158 168 177 182 184 187 193 187 187 191 185 179 181 171 157 157 159 164 166 165 158 164 174 173 177 186 205 218 249 300 319 331 340 335 336 331 331 336
184 174 177 178 171 171 173 174 179 182 186 193 194 196 200 193 186 177 173 166 160 172 178 179 173 173 174 182 188 182 192 185 235 257 290 305 320 329 322 323 330 334 346
184 183 179 182 184 181 178 179 179 181 181 191 198 201 198 202 203 188 184 185 180 185 188 191 188 183 182 191 198 204 210 211 192 283 305 296 305 314 316 315 326 338 339
197 199 196 186 190 186 174 178 181 188 193 197 195 200 203 199 186 198 204 214 201 193 197 199 202 197 198 199 204 210 220 231 239 250 246 298 300 303 317 324 333 336 337
198 201 202 197 192 194 185 186 184 182 183 189 190 203 201 194 197 203 211 210 203 202 203 207 209 209 208 213 216 219 224 231 243 249 268 290 291 303 304 313 321 327 328
Height
3186 3186 3187 3188 3187 3189 3188 3189 3192 3192 3193 3193 3193 3193 3195 3196 3197 3198 3199 3199 3201 3202 3203 3203 3204 3204 3206 3206 3206 3207 3207 3207 3208 3209 3209 3210 3210 3210 3211 3211 3211 3211 3212
3188 3189 3189 3190 3191 3193 3192 3193 3194 3195 3195 3196 3196 3197 3198 3199 3199 3201 3202 3203 3203 3205 3205 3206 3207 3207 3207 3208 3209 3209 3209 3209 3211 3211 3212 3212 3212 3213 3212 3213 3213 3213 3213
3190 3191 3192 3193 3194 3195 3195 3196 3196 3198 3198 3198 3199 3200 3200 3201 3202 3203 3205 3205 3205 3206 3207 3209 3209 3209 3210 3211 3211 3211 3212 3212 3213 3213 3213 3214 3214 3214 3215 3215 3215 3215 3215
3192 3193 3194 3194 3196 3197 3197 3199 3199 3200 3200 3201 3202 3203 3204 3205 3206 3206 3207 3207 3208 3209 3210 3211 3211 3212 3213 3213 3214 3214 3215 3215 3215 3215 3216 3216 3216 3216 3217 3217 3218 3217 3218
3194 3195 3197 3197 3198 3200 3200 3201 3202 3202 3203 3204 3205 3206 3207 3208 3209 3210 3210 3211 3212 3212 3213 3214 3216 3216 3216 3216 3216 3216 3217 3217 3217 3217 3218 3218 3218 3219 3220 3220 3220 3221 3221
3195 3197 3198 3199 3201 3202 3202 3203 3204 3205 3206 3207 3208 3209 3210 3211 3211 3212 3213 3214 3215 3215 3216 3217 3218 3219 3219 3220 3220 3220 3220 3220 3219 3220 3221 3222 3222 3222 3223 3223 3224 3224 3224
3196 3197 3199 3201 3202 3203 3205 3206 3207 3208 3208 3209 3210 3211 3211 3213 3213 3215 3216 3217 3218 3218 3219 3220 3220 3221 3223 3223 3223 3223 3223 3223 3222 3224 3224 3224 3225 3225 3226 3227 3227 3228 3227
3198 3199 3200 3202 3204 3206 3208 3209 3209 3210 3211 3212 3212 3214 3215 3215 3216 3217 3218 3220 3221 3221 3222 3223 3223 3224 3225 3225 3226 3226 3226 3226 3226 3227 3227 3227 3228 3229 3230 3230 3230 3230 3230
3199 3200 3201 3203 3205 3207 3209 3210 3211 3212 3212 3214 3215 3216 3217 3217 3219 3219 3221 3222 3224 3224 3225 3225 3226 3227 3228 3228 3229 3229 3229 3230 3230 3230 3231 3231 3232 3233 3233 3232 3233 3233 3233
3199 3201 3202 3204 3206 3207 3209 3211 3211 3213 3214 3216 3217 3218 3219 3221 3222 3223 3224 3225 3226 3227 3228 3229 3229 3230 3231 3231 3231 3232 3233 3233 3233 3234 3235 3235 3235 3236 3236 3236 3236 3236 3236
3200 3201 3203 3204 3206 3208 3211 3213 3214 3215 3217 3217 3219 3220 3221 3223 3225 3226 3227 3228 3228 3229 3230 3231 3231 3232 3233 3234 3234 3235 3236 3236 3237 3238 3238 3239 3239 3240 3239 3239 3239 3239 3239
3201 3202 3203 3205 3207 3209 3211 3212 3216 3218 3218 3219 3220 3222 3224 3225 3226 3228 3229 3230 3231 3231 3232 3233 3234 3235 3236 3237 3238 3238 3238 3239 3241 3241 3241 3243 3243 3242 3242 3242 3242 3242 3242
3201 3202 3203 3205 3207 3209 3210 3212 3216 3218 3220 3220 3222 3224 3225 3227 3228 3230 3231 3232 3233 3234 3235 3236 3237 3238 3239 3240 3241 3242 3242 3243 3244 3244 3245 3246 3246 3245 3246 3246 3246 3245 3244
3201 3202 3203 3205 3207 3209 3209 3213 3217 3220 3221 3222 3223 3225 3227 3229 3230 3231 3233 3234 3235 3236 3238 3238 3240 3241 3242 3243 3244 3244 3245 3246 3246 3248 3248 3249 3249 3249 3249 3249 3249 3248 3246
3201 3202 3203 3205 3207 3209 3210 3213 3217 3219 3221 3223 3224 3227 3228 3230 3232 3233 3234 3235 3236 3238 3240 3241 3242 3244 3245 3245 3246 3247 3248 3248 3250 3251 3252 3252 3252 3252 3252 3252 3251 3250 3248
3200 3202 3203 3204 3206 3209 3212 3214 3217 3219 3222 3224 3226 3228 3230 3232 3234 3236 3236 3237 3239 3240 3242 3243 3245 3246 3247 3248 3249 3250 3251 3252 3253 3254 3255 3255 3256 3256 3256 3255 3253 3251 3250
3201 3202 3204 3204 3206 3209 3211 3214 3217 3220 3223 3226 3228 3230 3232 3233 3235 3236 3238 3239 3240 3242 3244 3245 3246 3248 3249 3250 3251 3253 3254 3255 3256 3257 3258 3259 3259 3258 3257 3256 3254 3253 3250
3202 3202 3204 3205 3207 3209 3211 3213 3217 3220 3224 3227 3229 3231 3233 3235 3236 3237 3238 3240 3242 3243 3245 3246 3248 3250 3251 3253 3254 3256 3258 3259 3259 3260 3260 3261 3261 3260 3259 3258 3256 3254 3251
3202 3203 3204 3206 3207 3208 3211 3214 3217 3221 3224 3227 3229 3232 3234 3235 3236 3237 3239 3241 3243 3244 3246 3248 3250 3251 3253 3255 3257 3259 3260 3261 3262 3262 3262 3262 3262 3262 3261 3259 3257 3255 3252
3202 3203 3205 3207 3207 3209 3212 3216 3219 3222 3224 3227 3230 3231 3234 3236 3237 3238 3240 3242 3243 3245 3247 3248 3251 3253 3255 3257 3260 3261 3262 3262 3263 3263 3264 3264 3263 3262 3261 3260 3258 3256 3253
3202 3203 3205 3208 3210 3212 3215 3218 3221 3223 3225 3227 3230 3231 3233 3236 3237 3239 3241 3243 3244 3246 3248 3250 3251 3254 3256 3257 3260 3262 3263 3264 3264 3265 3265 3265 3264 3263 3261 3260 3258 3256 3253
3202 3204 3206 3209 3211 3213 3216 3219 3221 3224 3226 3228 3230 3232 3233 3235 3237 3239 3241 3243 3245 3247 3249 3251 3253 3255 3257 3258 3261 3262 3265 3266 3265 3265 3265 3265 3264 3263 3261 3259 3257 3255 3253
3202 3203 3206 3209 3211 3213 3216 3219 3221 3223 3226 3228 3230 3232 3234 3236 3237 3238 3240 3243 3245 3247 3249 3251 3253 3255 3258 3259 3260 3262 3265 3269 3266 3265 3265 3264 3264 3263 3261 3259 3256 3254 3252
3202 3203 3205 3208 3211 3213 3216 3218 3220 3223 3225 3228 3229 3231 3233 3235 3236 3238 3240 3242 3244 3246 3248 3251 3253 3254 3256 3258 3260 3261 3263 3264 3267 3269 3265 3264 3263 3263 3260 3258 3255 3253 3251
3202 3203 3205 3207 3210 3212 3214 3218 3220 3222 3224 3227 3229 3231 3232 3234 3236 3238 3240 3242 3243 3245 3247 3250 3252 3254 3255 3257 3259 3260 3261 3263 3264 3265 3268 3266 3262 3262 3259 3257 3255 3253 3250
3200 3202 3203 3206 3209 3212 3214 3216 3219 3222 3224 3226 3229 3231 3233 3235 3236 3238 3239 3241 3242 3244 3246 3248 3250 3252 3254 3256 3258 3259 3261 3262 3263 3263 3263 3263 3261 3259 3257 3256 3253 3251 3249